Tracking 22779 objects as of 12-Apr-2021
HD Live streaming from Space Station
objects crossing your sky now

STARLINK-1872

Track STARLINK-1872 now!
10-day predictions
STARLINK-1872 is classified as:


NORAD ID: 46742
Int'l Code: 2020-074D
Perigee: 554.4 km
Apogee: 554.6 km
Inclination: 53.1 °
Period: 95.6 minutes
Semi major axis: 6925 km
RCS: Unknown
Launch date: October 24, 2020
Source: United States (US)
Launch site: AIR FORCE EASTERN TEST RANGE (AFETR)
aabbcc
Your satellite tracking list
Your tracking list is empty




NASA's NSSDC Master Catalog

Two Line Element Set (TLE):
1 46742U 20074D   21102.07834191  .00005835  00000-0  41070-3 0  9991
2 46742  53.0546  88.9505 0000177  52.4247 307.6758 15.06358092 26500
Source of the keplerian elements: AFSPC